Orbital Elements at Epoch 2459200.5 (2020-Dec-17.0) TDB
Reference: JPL 18 (heliocentric ecliptic J2000)
Element | Value | Uncertainty (1-sigma) | Units |
e | .09527809999479726 | 6.3197e-08 | |
a | 2.804721166021981 | 1.8399e-08 | au |
q | 2.537492662308214 | 1.7906e-07 | au |
i | 3.856627604382563 | 7.3934e-06 | deg |
node | 24.3905304085575 | 6.5091e-05 | deg |
peri | 312.4447427660026 | 7.5159e-05 | deg |
M | 41.32658005733964 | 3.3796e-05 | deg |
tp | 2459003.548210499595 (2020-Jun-03.04821050) | 0.00016156 | TDB |
period | 1715.666869161931 4.70 | 1.6882e-05 4.622e-08 | d yr |
n | .2098309447310437 | 2.0647e-09 | deg/d |
Q | 3.071949669735748 | 2.0152e-08 | au |
|
| | Orbit Determination Parameters
Additional Information
|